Location: ????????
(55.6189°N, 38.3031°E)
Time: 12:44:50
(UTC+00:00)

SL-16 R/B - Pass Details

Date: 21 February 2020
Orbit: 843 x 847 km, 71.0° (Epoch: 08 April)

Event Time Altitude Azimuth Distance (km) Brightness Sun altitude
Exits shadow 00:25:00 29° 102° (ESE) 1,505 3.7 -34.9°
Drops below altitude 10° 00:29:35 10° 48° (NE) 2,476 5.4 -34.4°
Sets 00:32:19 0° 38° (NE) 3,415 6.3 -34.1°
